events-overview

Kinetic Sprint

 

Relays

Lake Anna State Park - Spotsylvania, VA 5/09/2010 10:00AM

** Results are for the private use of participants and are the Intellectual Property of Set Up Events. Unauthorized use of these results is prohibited.

Place T Bib Team Rank SWIM Rank T1 Rank BIKE Rank T2 Rank RUN PENALTY TIME DQ
1X708SKETCHY1000:17:21200:01:03400:54:02200:00:08400:23:24 01:35:56 
2X709TEAM AGUARDIENTE900:17:16600:01:10300:52:42300:00:11600:24:41 01:35:57 
3X704MISSY'S TEAM300:13:111500:01:13801:00:291300:00:19300:22:27 01:37:38 
4X692DA COOLNESS400:13:172100:01:20700:57:54400:00:111400:27:47 01:40:28 
5X711TEAM KNOB CREEK1100:17:28900:01:10500:55:00700:00:141300:27:40 01:41:31 
6X336TEAM KASHYAP1800:19:392600:01:25100:52:051000:00:171700:28:18 01:41:43 
7X712TEAM MARZO700:16:111400:01:121101:02:121500:00:20200:21:56 01:41:50 
8X714TEAM Z MMR2100:21:49400:01:06200:52:091100:00:181500:28:01 01:43:21 
9X710TEAM BECHEROVKA1700:19:271000:01:10600:57:26500:00:121000:27:16 01:45:28 
10X707SHEPHERD UNIVERSITY KAMIK200:12:52100:01:001801:07:581900:00:231600:28:07 01:50:19 
11X414ENDORPHINIZED1600:19:26500:01:091201:02:142500:00:311200:27:22 01:50:40 
12X717TRI UNIFY 11200:17:392400:01:231501:03:50900:00:161800:28:35 01:51:40 
13X716THE OLD AND THE NEW1400:18:15700:01:101301:02:162800:00:322000:31:12 01:53:23 
14X720TWO MOMS AND A DAUGHTER500:15:073000:02:571401:03:052000:00:242400:34:12 01:55:44 
15X693FUNZEES100:12:202900:02:152001:10:541200:00:182100:31:45 01:57:31 
16X715THE ATHLETICS2600:27:252500:01:241701:07:362400:00:30500:23:28 02:00:20 
17X697JUST TRI'N TO FINISH2200:22:343100:04:182101:10:563100:01:01100:21:51 02:00:39 
18X700LATIN HEAT1500:19:162200:01:232301:14:15100:00:07800:26:31 02:01:30 
19X719TRIPLE Z THREAT2700:27:371300:01:112201:11:261700:00:22700:26:08 02:06:42 
20X698KEEKAPALONE800:16:481900:01:192601:15:272200:00:282300:33:21 02:07:22 
21X713TEAM WESOHA2500:27:231100:01:10901:00:461400:00:192700:38:22 02:07:58 
22X703MAYA3100:35:322300:01:231001:00:52800:00:151900:30:20 02:08:20 
23X706MNB RACERS2000:20:192000:01:203001:21:352700:00:32900:26:52 02:10:36 
24X701LUV2TRI1900:20:18800:01:101901:08:002300:00:292900:44:20 02:14:15 
25X718TRI UNIFY 21300:17:442800:02:052801:17:082100:00:272600:37:32 02:14:54 
26X691CJSQUARED3000:31:28300:01:042401:15:082900:00:341100:27:19 02:15:30 
27X695HEAR ME ROAR!2300:24:482700:01:362701:16:011600:00:212500:34:23 02:17:07 
28X705MIXED-Z600:15:471800:01:162501:15:162600:00:323000:54:31 02:27:20 
29X702M&MS2800:28:051700:01:142901:19:461800:00:222800:39:10 02:28:35 
30X694GIRL POWER2900:28:531600:01:133101:29:22600:00:132200:32:01 02:31:40 
PlaceTBibTeamRankSWIMRankT1RankBIKERankT2RankRUNPENALTYTIMEDQ
31X696HIGHER ACHIEVEMENT2400:26:561200:01:111601:04:443000:00:353101:02:36 02:36:00 

** Results are for the private use of participants and are the Intellectual Property of Set Up Events. Unauthorized use of these results is prohibited.